Location: Unspecified
(0.0000°N, 0.0000°E)
Time: 23:01:35
(UTC+00:00)

Transit 2A - All Passes

Search period start: 28 February 2015 00:00
Search period end: 10 March 2015 00:00
Orbit: 592 x 970 km, 66.7° (Epoch: 28 February)

Date Brightness Start Highest point End Pass type
(mag) Time Alt. Az. Time Alt. Az. Time Alt. Az.
28 Feb - 05:45:58 10° NNE 05:49:20 16° ENE 05:52:51 10° ESE visible
28 Feb - 07:27:20 10° NW 07:32:39 36° WSW 07:37:26 10° S daylight
28 Feb - 18:18:17 10° S 18:22:46 41° ESE 18:27:45 10° NE daylight
28 Feb - 20:04:24 10° W 20:06:09 11° WNW 20:07:32 10° NW visible
01 Mar - 06:53:13 10° NNW 06:58:59 60° WSW 07:04:10 10° S daylight
01 Mar - 17:45:19 10° SSE 17:49:06 24° ESE 17:53:20 10° NE daylight
01 Mar - 19:28:35 10° WSW 19:32:14 20° WNW 19:35:56 10° NNW visible
02 Mar - 06:19:25 10° NNW 06:25:17 83° ENE 06:30:35 10° SSE daylight
02 Mar - 17:13:03 10° SE 17:15:23 14° ESE 17:18:09 10° ENE daylight
02 Mar - 18:53:59 10° SW 18:58:24 32° WNW 19:03:10 10° N visible
03 Mar - 05:45:55 10° N 05:51:33 50° ENE 05:56:42 10° SE visible
03 Mar - 07:33:15 10° W 07:34:36 11° WSW 07:35:26 10° WSW daylight
03 Mar - 18:19:51 10° SSW 18:24:37 56° WNW 18:29:55 10° N daylight
04 Mar - 05:12:45 10° N 05:17:46 30° ENE 05:22:28 10° SE visible
04 Mar - 06:56:54 10° WNW 07:00:51 19° WSW 07:04:18 10° SSW daylight
04 Mar - 17:46:04 10° SSW 17:50:55 85° ESE 17:56:19 10° NNE daylight
05 Mar - 04:40:04 10° NNE 04:43:54 19° ENE 04:47:45 10° ESE visible
05 Mar - 06:22:08 10° NW 06:27:08 30° WSW 06:31:39 10° S daylight
05 Mar - 17:12:34 10° S 17:17:14 49° ESE 17:22:26 10° NE daylight
06 Mar - 04:08:42 10° NE 04:09:58 11° ENE 04:11:42 10° E visible
06 Mar - 05:47:52 10° NW 05:53:28 51° WSW 05:58:29 10° S visible
06 Mar - 16:39:25 10° SSE 16:43:34 29° ESE 16:48:10 10° NE daylight
06 Mar - 18:23:25 10° WSW 18:26:47 17° WNW 18:30:04 10° NNW daylight
07 Mar - 05:13:59 10° NNW 05:19:47 85° WSW 05:25:00 10° SSE visible
07 Mar - 16:06:50 10° SSE 16:09:51 17° ESE 16:13:19 10° ENE daylight
07 Mar - 17:48:36 10° SW 17:52:54 28° WNW 17:57:29 10° N daylight
08 Mar - 04:40:23 10° N 04:46:03 58° ENE 04:51:12 10° SSE visible
08 Mar - 17:14:21 10° SW 17:19:06 47° WNW 17:24:21 10° N daylight
09 Mar - 04:07:05 10° N 04:12:16 35° ENE 04:17:05 10° SE visible
09 Mar - 05:52:00 10° WNW 05:55:19 15° WSW 05:58:10 10° SW daylight
09 Mar - 16:40:26 10° SSW 16:45:22 81° WNW 16:50:51 10° NNE daylight
